Temperature
18 18 18 18 17 17 17 17 17 17 17 17 17 17 17 17 17 17 17 17 17 17 17 16 16 16 16 16 16 16 16 16 16 16 16 16 16 16 15 15 15 15 15
18 18 17 17 17 17 17 17 17 17 17 17 17 17 17 17 17 17 17 17 17 16 16 16 16 16 16 16 16 16 16 16 16 16 16 16 15 15 15 15 15 15 15
17 17 17 17 17 17 17 17 17 17 17 17 17 17 17 17 17 17 17 17 16 16 16 16 16 16 16 16 16 16 16 16 16 16 16 16 15 15 15 15 15 15 15
17 17 17 17 17 17 17 17 17 17 17 17 17 17 17 17 17 16 16 16 16 16 16 16 16 16 16 16 16 16 16 16 16 16 16 16 15 15 15 15 15 15 15
17 17 17 17 17 17 17 17 17 17 17 17 17 17 17 16 16 16 16 16 16 16 16 16 16 16 16 16 16 16 16 16 16 16 16 16 15 15 15 15 15 15 15
17 17 17 17 17 17 17 17 17 17 17 17 16 16 16 16 16 16 16 16 16 16 16 16 16 16 16 16 16 16 16 16 15 15 15 15 15 15 15 15 15 15 15
17 17 17 17 17 17 17 17 17 17 16 16 16 16 16 16 16 16 16 16 16 16 16 16 16 16 16 15 16 16 16 15 15 15 15 15 15 15 15 15 15 15 15
17 17 17 17 17 17 17 17 17 16 16 16 16 16 16 16 16 16 16 16 16 16 16 16 16 16 16 16 16 15 15 15 15 15 15 15 15 15 15 15 15 15 15
17 17 17 17 17 17 17 17 17 16 16 16 16 16 16 16 17 17 17 16 16 16 16 16 16 16 16 16 16 15 15 15 15 15 15 15 15 15 15 15 15 15 15
17 17 17 17 17 17 16 16 16 16 16 16 16 16 16 16 16 17 17 17 17 16 16 16 16 16 16 16 16 15 15 15 15 15 15 15 15 15 15 15 15 15 15
17 17 17 17 17 16 16 16 16 16 16 16 16 16 16 16 16 17 17 17 17 17 17 16 16 16 16 16 16 16 16 15 15 15 15 15 15 15 15 15 15 15 15
17 17 17 17 16 16 16 16 16 16 16 16 16 16 16 16 16 17 17 17 17 17 17 17 17 16 16 16 16 16 16 16 15 15 15 15 15 15 15 15 15 15 15
17 17 17 17 17 16 16 16 16 16 16 16 16 16 16 16 16 16 16 17 17 17 17 17 17 17 17 16 16 16 16 16 16 15 15 15 15 15 15 15 15 15 14
17 17 17 17 17 16 16 16 16 16 16 16 16 16 16 16 16 16 16 16 16 17 17 17 17 17 17 17 16 16 16 16 16 16 15 15 15 15 15 15 15 15 14
17 17 17 17 16 16 16 16 16 16 16 16 16 16 16 16 16 16 16 16 16 16 16 17 17 17 17 17 17 16 16 16 16 16 16 15 15 15 15 15 15 15 14
17 17 17 16 16 16 16 16 16 16 16 16 16 16 16 16 16 16 16 16 16 16 16 16 16 16 16 16 16 16 16 16 16 16 16 15 15 15 15 15 15 14 14
17 16 16 16 16 16 16 16 16 16 16 16 16 16 16 16 16 16 16 16 16 16 16 16 16 16 16 16 16 16 16 16 16 16 16 15 15 15 15 15 15 14 14
16 16 16 16 16 16 16 16 16 16 16 16 16 16 16 15 15 15 15 15 15 15 15 15 16 16 16 16 16 16 16 16 16 16 16 15 15 15 15 15 15 15 14
16 16 16 16 16 16 16 16 15 16 16 16 16 15 15 15 15 15 15 15 15 15 15 15 15 15 15 15 15 15 15 15 15 15 15 15 15 15 15 15 15 15 14
16 16 16 16 16 16 15 15 15 15 15 15 15 15 15 15 15 15 15 15 15 15 15 15 15 15 15 15 15 15 15 15 15 15 15 15 15 15 15 14 14 14 14
16 16 16 16 16 15 15 15 15 15 15 15 15 15 15 15 15 15 15 15 14 14 14 14 14 14 14 14 14 14 14 14 14 14 14 14 14 14 14 14 14 14 14
16 16 15 15 15 15 15 15 15 15 15 15 15 15 14 14 14 14 14 14 14 14 14 14 14 14 14 14 14 14 14 14 14 14 14 14 14 14 14 13 13 13 13
15 15 15 15 15 15 15 15 15 15 14 14 14 14 14 14 14 14 14 14 14 14 13 13 13 13 13 13 13 13 13 13 13 13 12 13 13 13 13 13 13 13 13
15 15 15 15 15 15 14 14 14 14 14 14 14 14 14 14 14 13 13 13 13 13 13 13 13 13 12 12 12 12 12 12 12 12 12 12 12 12 12 12 12 12 12
14 14 14 14 14 14 14 14 14 14 14 14 14 13 13 13 13 13 13 13 13 12 12 12 12 12 12 12 12 11 11 11 11 11 11 11 11 11 12 12 12 11 11
14 14 14 14 13 13 13 13 13 14 14 13 13 13 13 12 12 12 12 12 12 12 12 11 11 11 11 11 11 11 10 10 10 10 10 10 10 10 10 10 11 10 10
Wind_Speed
4 4 3 3 4 4 4 3 3 3 3 4 5 6 7 7 7 6 7 9 9 9 9 9 9 9 9 8 9 9 9 9 9 9 9 8 8 8 8 8 8 7 7
6 4 3 3 3 4 4 3 3 3 2 3 4 5 6 6 7 6 6 7 8 9 9 9 9 9 9 9 8 9 9 9 9 9 9 8 8 8 8 8 8 7 7
9 6 4 3 3 4 4 4 3 3 3 3 3 3 4 5 5 6 5 5 6 7 8 8 9 9 9 9 9 9 9 9 9 9 9 9 8 8 8 7 8 8 7
10 7 4 3 4 5 4 3 3 3 2 2 2 2 2 3 4 4 4 5 5 5 7 7 8 8 8 9 9 9 9 9 10 10 10 9 9 9 9 9 8 8 9
11 9 5 5 6 4 3 2 2 2 3 2 2 1 1 1 2 3 4 5 6 6 6 7 7 8 9 9 9 10 10 10 11 11 11 11 10 10 10 10 9 9 9
11 9 6 6 6 4 3 2 3 2 2 2 2 2 1 0 1 2 4 4 6 7 7 7 7 8 9 10 9 10 10 10 11 11 12 12 12 11 11 11 11 10 10
12 10 6 6 5 5 5 5 3 3 2 2 3 2 2 1 1 2 3 3 5 7 7 8 8 8 8 10 11 11 10 10 11 12 12 12 12 12 12 12 12 12 12
12 10 8 6 6 5 5 5 4 3 2 2 3 2 1 2 2 1 2 4 5 5 6 8 8 9 9 8 10 11 12 12 11 12 12 12 12 13 13 13 13 13 13
12 10 10 7 6 6 6 5 5 5 3 1 1 3 3 3 2 2 2 3 3 4 5 6 8 9 10 10 10 11 12 13 12 12 12 12 13 13 14 13 13 13 13
10 11 10 9 7 6 6 6 5 4 5 3 1 1 1 3 2 1 2 1 2 4 5 5 7 9 10 10 11 12 13 13 13 13 13 13 13 14 14 14 13 13 13
8 10 10 8 7 6 6 6 5 5 4 4 3 2 2 1 1 2 1 2 2 3 3 5 6 7 9 11 11 12 14 14 14 14 14 14 14 14 14 14 13 13 13
5 7 8 7 7 6 6 6 6 6 5 4 3 3 3 3 3 3 2 2 2 2 2 3 5 7 8 9 11 13 14 14 14 15 14 14 14 14 14 14 14 13 13
5 7 7 7 6 6 7 6 6 6 6 5 5 3 3 3 3 3 3 2 2 2 2 2 4 6 7 9 11 14 14 15 15 15 15 15 15 14 14 13 13 13 13
7 8 8 8 7 8 7 6 5 5 5 5 5 4 3 3 3 3 4 3 1 1 2 3 2 4 6 8 11 12 12 15 16 16 16 15 15 15 15 14 14 14 14
6 8 8 8 7 7 7 7 5 6 6 6 5 5 4 3 3 3 3 3 4 2 3 3 2 2 4 7 9 9 11 13 15 16 16 16 16 15 16 16 16 16 16
6 8 8 7 7 7 7 6 5 5 6 5 4 5 4 3 3 3 3 3 3 4 4 3 3 2 3 4 6 8 10 12 13 15 15 16 16 16 17 17 17 17 17
7 8 8 8 8 7 7 6 6 6 6 5 5 5 5 4 4 3 3 3 3 4 4 3 2 2 2 3 2 4 6 7 9 12 14 15 16 17 17 17 18 18 18
7 7 7 7 7 7 7 7 7 7 7 7 6 6 6 4 4 4 4 4 4 4 4 4 2 2 3 2 2 3 3 5 7 10 12 14 15 16 17 17 17 18 18
7 6 6 7 6 6 6 6 6 6 6 6 6 6 5 5 5 3 4 4 4 4 4 4 3 2 2 2 2 2 2 3 5 7 9 11 13 14 15 15 16 17 18
7 7 6 7 6 6 6 6 5 5 4 4 4 4 4 5 5 5 4 5 4 4 4 3 3 3 3 2 1 2 2 2 3 4 6 7 8 10 12 13 14 15 15
6 6 5 5 5 4 5 6 5 5 4 3 2 3 3 4 4 4 3 4 4 3 3 3 3 2 2 2 2 2 3 3 3 3 3 4 5 6 8 10 11 12 13
4 4 4 4 4 4 6 7 6 4 4 3 3 2 2 1 2 2 3 3 4 4 4 3 3 3 3 3 2 2 2 2 3 1 2 4 3 5 7 8 10 12 13
5 5 5 5 4 3 5 6 7 5 4 3 3 2 1 0 1 0 0 1 2 1 2 3 3 4 3 3 2 3 3 3 4 3 2 5 4 5 7 9 11 13 13
5 5 5 5 5 5 5 6 6 4 4 2 2 2 2 1 1 1 2 3 3 3 2 0 1 3 3 2 2 3 3 4 4 3 2 4 5 5 6 8 10 11 12
6 6 6 6 6 6 7 5 5 4 4 3 3 3 2 2 2 3 4 3 3 3 5 5 4 4 5 5 2 1 1 2 3 3 1 3 4 5 5 6 8 10 10
7 7 7 7 7 6 8 7 5 4 5 4 4 5 6 5 5 5 4 4 3 3 4 5 6 7 7 8 7 3 2 2 3 3 1 2 3 3 4 3 4 7 8
Wind_Direction
148 147 142 134 126 121 116 108 101 101 107 121 138 149 156 159 162 167 177 180 177 173 172 175 176 174 169 169 171 169 167 165 164 165 164 162 162 161 161 159 157 156 155
161 158 153 149 144 141 132 125 115 110 113 122 134 152 158 159 164 169 176 185 189 186 185 186 187 184 181 180 182 181 182 180 177 177 177 176 177 178 176 175 173 170 170
171 167 162 163 160 150 135 119 102 100 107 115 123 135 152 161 168 175 181 190 197 197 197 198 200 199 196 193 193 193 191 188 186 186 189 190 189 190 188 185 186 186 187
179 169 169 175 163 148 136 120 111 102 97 108 122 129 142 153 172 180 184 194 201 206 210 213 213 211 210 208 206 204 201 200 198 197 200 202 202 200 201 201 202 202 202
183 174 176 174 159 147 139 138 113 123 126 122 120 101 121 159 187 197 203 209 214 217 218 223 225 224 222 222 219 215 211 209 206 206 208 210 210 208 210 211 213 213 214
184 178 177 169 159 147 143 130 120 97 114 130 111 84 39 283 210 216 226 224 225 228 229 231 234 235 233 231 229 227 222 218 213 213 215 216 216 216 218 219 221 221 222
182 178 175 165 163 163 163 150 129 116 105 116 97 61 21 2 258 238 232 232 234 234 232 233 235 238 242 239 235 234 233 229 223 221 221 221 219 220 222 224 226 228 228
182 184 173 170 167 157 154 155 142 129 117 123 127 109 36 351 329 262 237 231 236 236 236 236 234 237 240 239 239 237 237 236 233 229 227 226 225 224 224 228 232 235 235
183 180 175 169 169 168 172 172 159 149 150 136 130 141 150 217 288 314 271 245 237 232 239 241 237 238 239 238 239 240 239 238 238 236 233 230 230 230 230 231 235 237 238
183 178 174 172 171 172 175 179 171 158 148 157 143 115 147 154 160 299 317 289 256 239 240 241 239 237 235 235 236 240 241 240 240 240 238 234 232 234 235 235 238 239 240
182 178 176 173 173 176 179 172 164 163 160 161 161 152 132 106 130 161 260 304 297 258 243 241 242 241 237 235 238 241 242 241 242 242 241 240 238 236 236 238 240 243 243
180 178 175 175 177 176 180 178 171 170 171 162 162 163 162 163 181 174 202 243 267 281 267 248 239 240 239 236 239 242 242 241 242 242 243 243 241 240 241 240 243 246 248
187 186 181 178 178 180 179 172 170 176 175 170 175 180 185 187 166 164 170 202 246 285 297 266 242 241 242 240 243 242 242 242 241 241 242 242 242 243 244 244 245 247 250
193 184 182 182 181 179 178 172 174 183 179 181 188 181 187 197 185 180 174 164 189 284 289 275 275 242 240 238 243 243 242 242 240 240 240 240 242 243 244 245 247 250 252
188 182 182 182 183 179 178 173 180 186 180 187 191 191 195 202 198 198 188 177 172 208 255 267 266 265 251 246 247 239 238 242 241 240 240 240 243 245 245 247 249 252 254
183 178 180 180 181 181 179 177 180 187 185 191 191 193 201 201 199 197 198 197 192 192 227 252 253 273 279 269 256 240 242 246 245 244 242 243 244 246 247 249 251 253 255
176 180 181 179 180 183 181 181 191 189 193 198 196 198 207 194 193 196 194 196 198 191 220 256 257 270 275 275 284 258 253 249 252 250 248 248 248 249 250 252 253 255 256
177 180 178 178 184 186 184 186 199 197 197 200 201 197 208 198 197 197 198 204 207 204 209 239 256 261 260 277 278 275 270 259 257 261 256 254 253 253 253 254 255 256 257
173 175 179 184 189 187 188 194 199 199 202 205 201 201 206 192 204 205 206 211 214 209 209 223 247 250 263 281 282 284 288 282 278 271 264 258 257 258 258 258 259 260 259
170 178 186 187 188 187 189 188 188 194 200 202 199 202 204 201 209 207 209 214 210 206 206 220 241 254 260 269 258 268 289 283 289 294 279 271 267 264 262 262 264 264 263
168 167 169 173 175 182 191 180 179 183 185 190 193 198 197 195 203 202 207 208 200 204 209 224 240 251 260 252 251 251 269 287 282 275 283 279 274 273 273 269 267 266 266
136 140 150 155 165 189 175 166 164 162 167 179 187 195 190 196 228 223 221 199 185 197 211 217 239 250 265 257 256 255 267 287 288 278 267 279 268 271 274 270 270 269 270
114 106 106 113 112 117 138 146 150 155 160 171 171 168 163 74 93 103 162 116 103 93 202 210 237 252 263 258 254 261 251 252 264 285 275 282 279 278 282 279 278 277 277
104 99 94 97 93 72 84 113 124 131 125 114 116 134 137 62 63 138 121 91 66 39 37 115 252 276 286 287 252 260 269 269 268 271 259 276 286 283 291 287 283 282 281
94 86 82 83 81 61 60 89 116 120 105 85 69 65 92 86 53 109 114 102 71 41 47 50 50 31 24 20 18 18 323 296 293 292 266 273 288 292 287 281 286 287 286
100 91 78 70 71 59 50 64 95 105 102 87 63 52 56 69 67 82 99 94 69 23 21 29 34 30 29 29 31 28 336 301 294 295 324 297 294 309 299 290 300 307 303
Height
1555 1557 1559 1561 1562 1564 1566 1567 1569 1570 1571 1573 1574 1575 1576 1577 1577 1578 1579 1580 1581 1582 1583 1584 1585 1586 1587 1588 1589 1590 1591 1592 1593 1594 1595 1596 1597 1598 1599 1600 1601 1602 1603
1556 1558 1559 1561 1563 1565 1566 1568 1569 1571 1572 1573 1574 1575 1576 1577 1578 1579 1580 1581 1581 1582 1583 1584 1585 1586 1587 1588 1589 1590 1591 1592 1593 1595 1596 1597 1598 1599 1600 1600 1601 1602 1603
1556 1558 1560 1562 1563 1565 1567 1568 1570 1571 1573 1574 1575 1576 1577 1578 1579 1580 1580 1581 1582 1583 1583 1584 1585 1586 1587 1588 1589 1590 1591 1592 1593 1594 1595 1596 1598 1598 1599 1600 1601 1602 1603
1556 1558 1560 1562 1563 1565 1567 1568 1570 1571 1573 1574 1575 1576 1577 1578 1579 1580 1581 1581 1582 1583 1583 1584 1585 1586 1587 1588 1588 1589 1590 1592 1593 1594 1595 1596 1597 1598 1599 1600 1600 1601 1602
1555 1557 1559 1561 1563 1565 1567 1568 1570 1571 1573 1574 1575 1576 1577 1578 1579 1580 1580 1581 1582 1582 1583 1584 1584 1585 1586 1587 1588 1589 1589 1591 1592 1593 1594 1595 1596 1597 1598 1599 1599 1600 1601
1554 1556 1559 1561 1562 1564 1566 1568 1569 1571 1572 1574 1575 1576 1577 1578 1578 1579 1580 1581 1581 1582 1583 1583 1584 1585 1585 1586 1587 1587 1588 1589 1591 1592 1593 1594 1595 1596 1596 1597 1598 1599 1599
1553 1555 1557 1559 1561 1563 1565 1567 1569 1570 1572 1573 1574 1575 1576 1577 1578 1579 1579 1580 1581 1582 1582 1583 1583 1584 1584 1585 1585 1586 1587 1588 1589 1590 1591 1592 1593 1594 1595 1595 1596 1597 1598
1551 1553 1555 1558 1560 1562 1564 1566 1568 1569 1571 1572 1574 1574 1575 1577 1577 1577 1578 1579 1580 1580 1581 1582 1582 1583 1583 1584 1584 1585 1586 1586 1587 1588 1589 1590 1591 1592 1593 1593 1594 1595 1595
1549 1551 1553 1556 1558 1560 1563 1564 1566 1568 1569 1571 1573 1574 1575 1575 1575 1576 1577 1578 1578 1579 1580 1580 1581 1582 1582 1582 1583 1583 1584 1585 1585 1586 1587 1588 1589 1590 1591 1591 1592 1592 1593
1547 1549 1552 1554 1556 1559 1561 1563 1565 1566 1568 1569 1571 1572 1574 1574 1575 1575 1576 1576 1577 1578 1578 1579 1579 1580 1581 1581 1581 1582 1582 1583 1583 1584 1585 1586 1587 1587 1588 1589 1589 1589 1590
1544 1547 1549 1552 1554 1556 1559 1561 1563 1564 1566 1568 1569 1570 1572 1573 1573 1574 1574 1575 1575 1576 1577 1577 1578 1578 1579 1579 1580 1580 1581 1581 1582 1582 1583 1584 1584 1585 1585 1586 1586 1586 1587
1541 1544 1547 1549 1552 1554 1557 1559 1561 1562 1564 1566 1567 1569 1570 1571 1572 1572 1573 1573 1574 1574 1575 1575 1576 1576 1577 1577 1578 1578 1579 1579 1580 1580 1581 1581 1582 1582 1582 1582 1583 1583 1583
1537 1541 1544 1547 1549 1552 1554 1557 1559 1560 1562 1563 1565 1567 1568 1569 1570 1571 1571 1571 1572 1572 1572 1573 1573 1574 1575 1575 1576 1576 1577 1577 1577 1578 1578 1579 1579 1579 1579 1579 1579 1579 1579
1535 1538 1542 1544 1547 1549 1552 1554 1556 1558 1559 1561 1563 1564 1566 1567 1568 1568 1569 1570 1570 1570 1570 1571 1571 1571 1572 1572 1573 1573 1574 1574 1575 1575 1575 1576 1576 1576 1576 1576 1576 1576 1576
1533 1536 1539 1542 1544 1547 1549 1551 1553 1555 1557 1558 1560 1562 1563 1564 1565 1566 1566 1567 1568 1568 1568 1568 1569 1569 1569 1570 1570 1570 1571 1571 1572 1572 1572 1572 1572 1572 1572 1572 1572 1572 1572
1529 1532 1536 1538 1541 1544 1546 1548 1550 1552 1554 1556 1557 1559 1560 1561 1562 1563 1563 1564 1565 1565 1565 1565 1566 1566 1566 1566 1567 1567 1567 1568 1568 1568 1569 1569 1569 1569 1569 1569 1568 1568 1568
1525 1529 1532 1535 1538 1540 1543 1545 1547 1549 1550 1552 1554 1555 1556 1558 1559 1559 1560 1561 1561 1562 1562 1562 1562 1563 1563 1563 1563 1563 1564 1564 1564 1564 1564 1564 1564 1564 1564 1564 1564 1564 1563
1522 1525 1529 1532 1535 1537 1539 1542 1544 1545 1547 1548 1550 1551 1552 1554 1555 1555 1556 1557 1557 1558 1558 1558 1558 1559 1559 1559 1559 1559 1559 1559 1560 1560 1560 1560 1560 1560 1559 1559 1559 1558 1558
1518 1522 1525 1528 1531 1533 1536 1538 1540 1542 1544 1545 1546 1547 1549 1550 1550 1551 1552 1553 1553 1554 1554 1554 1554 1554 1554 1554 1554 1554 1555 1554 1554 1554 1554 1554 1554 1554 1554 1553 1553 1552 1552
1516 1519 1522 1524 1527 1529 1532 1534 1536 1538 1540 1542 1543 1544 1545 1546 1547 1548 1548 1549 1550 1550 1550 1550 1550 1550 1550 1550 1550 1550 1550 1550 1549 1549 1549 1549 1548 1548 1548 1547 1547 1546 1546
1514 1516 1518 1521 1523 1526 1528 1531 1533 1535 1537 1538 1539 1540 1541 1542 1543 1544 1545 1545 1546 1546 1546 1546 1546 1546 1546 1546 1545 1545 1544 1544 1544 1544 1543 1543 1542 1542 1541 1541 1540 1540 1539
1511 1513 1515 1517 1520 1522 1525 1528 1530 1532 1533 1534 1535 1537 1538 1538 1539 1540 1541 1542 1542 1542 1542 1542 1542 1542 1541 1541 1541 1540 1540 1539 1538 1538 1537 1537 1536 1535 1535 1534 1533 1533 1532
1510 1512 1514 1516 1518 1520 1523 1525 1527 1528 1530 1531 1532 1533 1534 1535 1536 1536 1537 1538 1538 1538 1538 1538 1538 1537 1537 1537 1536 1535 1535 1534 1533 1532 1531 1530 1530 1529 1528 1527 1526 1525 1524
1510 1511 1513 1515 1517 1519 1521 1522 1524 1526 1527 1528 1529 1530 1531 1532 1533 1533 1533 1534 1534 1534 1534 1534 1534 1533 1533 1532 1531 1531 1530 1529 1528 1527 1526 1524 1523 1522 1522 1521 1520 1518 1517
1510 1511 1514 1515 1517 1518 1520 1521 1523 1523 1525 1526 1527 1528 1528 1529 1529 1530 1530 1530 1531 1531 1531 1531 1530 1529 1528 1528 1527 1526 1525 1524 1523 1522 1521 1519 1517 1516 1515 1514 1513 1512 1511
1511 1513 1514 1516 1517 1518 1520 1521 1522 1522 1522 1523 1524 1525 1526 1526 1526 1526 1527 1527 1527 1527 1527 1527 1527 1526 1525 1524 1523 1522 1521 1520 1518 1517 1516 1514 1512 1510 1508 1507 1506 1505 1504